Regional Weather Roundup
Issued by NWS

Home | Current Version | Previous Version | Graphics & Text | Print | Product List | Glossary On
Versions: 1 2 3 4 5 6 7 8 9 10 11 12 13 14 15 16 17 18 19 20 21 22 23 24 25 26 27 28 29 30 31 32 33 34 35 36 37 38 39 40 41 42 43 44 45 46 47 48 49 50
000
ASUS43 KLSX 060507
RWRMO

WEATHER SUMMARY FOR MISSOURI
NATIONAL WEATHER SERVICE SPRINGFIELD MO
1200 AM CDT MON JUL 06 2015

NOTE: "FAIR" INDICATES FEW OR NO CLOUDS BELOW 12,000 FEET WITH NO
       SIGNIFICANT WEATHER AND/OR OBSTRUCTIONS TO VISIBILITY.
       CURRENT SKY AND/OR WEATHER CONDITIONS ARE NOT AVAILABLE FOR
       CHILLICOTHE AND FARMINGTON.

MOZ001>031-035>038-043-044-053-054-060600-
...NORTHERN AND WESTERN MISSOURI...

CITY           SKY/WX    TMP DP  RH WIND       PRES   REMARKS
KANSAS CTY INT PTCLDY    79  71  76 S15       29.90R
KANSAS C DTWN  CLEAR     81  69  67 S8        29.89R
LEE`S SUMMIT   CLEAR     76  67  73 S10G18    29.93R
ST JOSEPH      MOCLDY    82  74  76 S12       29.86S
CHILLICOTHE      N/A     80  73  79 SE6       29.92R
KIRKSVILLE     CLEAR     73  68  84 S8        29.95R

$$
MOZ066>068-077>081-088>096-101>105-060600-
...SOUTHWEST MISSOURI...

CITY           SKY/WX    TMP DP  RH WIND       PRES   REMARKS
SPRINGFIELD    CLEAR     72  67  84 S13       30.00F
JOPLIN         PTCLDY    74  67  78 SE9       29.96S

$$
MOZ032>034-039>042-045>050-055>058-069>072-060600-
...CENTRAL MISSOURI...

CITY           SKY/WX    TMP DP  RH WIND       PRES   REMARKS
COLUMBIA       CLEAR     75  71  87 S8        29.97F
JEFFERSON CITY CLEAR     77  71  82 SE3       29.96F
ROLLA          CLEAR     74  71  91 S9        29.99F
SEDALIA        CLEAR     74  66  76 S10       29.96S
WHITEMAN AFB   CLEAR     73  66  78 S9        29.94S
WARRENSBURG    CLEAR     73  64  73 S7        29.94R
OSAGE BEACH    CLEAR     73  66  78 S7        29.98F

$$
MOZ051-052-059>065-060600-
...EAST CENTRAL MISSOURI...

CITY           SKY/WX    TMP DP  RH WIND       PRES   REMARKS
ST LOUIS INTL  PTCLDY    79  68  69 S9        30.00F
SPIRIT OF STL  CLEAR     76  70  82 VRB5      29.98F
ST CHARLES     CLEAR     75  69  81 SE6       29.98F HAZE

$$
MOZ072>076-082>087-097>100-106>115-060600-
...SOUTH CENTRAL AND SOUTHEAST MISSOURI...

CITY           SKY/WX    TMP DP  RH WIND       PRES   REMARKS
CAPE GIRARDEAU PTCLDY    73  70  90 CALM      30.03F
FARMINGTON     CLEAR     72  68  88 S3        30.07F
POPLAR BLUFF   PTCLDY    74  72  93 S3        30.02F
WEST PLAINS    PTCLDY    74  71  91 S6        30.05F

$$



USA.gov is the U.S. government's official web portal to all federal, state and local government web resources and services.